Вернуться в каталог

COSMOS 1823 DEB

АктивенLEO
NORAD 18730·DEBRIS·🇷🇺 Russia

Запущен Feb 20, 1987 с Plesetsk Cosmodrome

Loading…

Ближайшие Пролёты (ближайшие 24 часа)

TLE

СвежийSource: Space-Track

Эпоха: Sep 14, 2026, 06:15 UTC

1 18730U 87020H   26257.26074359 -.00000091  00000-0 -74953-3 0  9997
2 18730  73.9339 182.8925 0183202 294.3674 221.8635 12.13477306715443

Отслеживайте COSMOS 1823 DEB в реальном времени с AllMySat

Download on the App Store